Precipitable_Water
0.58 0.58 0.58 0.58 0.57 0.56 0.56 0.55 0.55 0.54 0.53 0.53 0.52 0.52 0.52 0.52 0.53 0.52 0.51 0.51 0.50 0.50 0.50 0.49 0.50 0.50 0.49 0.50 0.51 0.51 0.52 0.42 0.34 0.28 0.24 0.19 0.20 0.25 0.42 0.37 0.41 0.45 0.45 0.48 0.43 0.48 0.45 0.48 0.61 1.04 1.10 1.08 1.11 1.17 1.45 1.56 1.63 1.48 1.15 1.11 1.03 1.15 1.14 1.34 1.30 1.35 1.47 1.31 1.38 1.39 1.38 1.35 1.22 1.36 1.42 1.46 1.26 1.09 1.05 1.00 1.08 1.15 1.13 1.25 1.37 1.46 1.48 1.50
0.59 0.58 0.58 0.58 0.57 0.57 0.56 0.55 0.54 0.53 0.53 0.51 0.51 0.50 0.50 0.50 0.50 0.50 0.50 0.50 0.50 0.49 0.48 0.48 0.48 0.48 0.49 0.49 0.50 0.52 0.48 0.39 0.31 0.30 0.23 0.23 0.27 0.26 0.35 0.36 0.41 0.46 0.48 0.36 0.37 0.42 0.42 0.54 0.84 1.03 0.99 0.97 1.19 1.10 1.47 1.38 1.62 1.27 1.18 1.14 0.99 1.16 1.33 1.53 1.51 1.51 1.42 1.36 1.43 1.44 1.49 1.40 1.33 1.45 1.50 1.19 1.12 1.02 0.96 0.99 1.07 1.01 1.11 1.27 1.36 1.38 1.38 1.41
0.59 0.59 0.59 0.59 0.58 0.57 0.56 0.55 0.54 0.53 0.53 0.52 0.51 0.50 0.48 0.48 0.48 0.49 0.48 0.48 0.48 0.48 0.48 0.48 0.48 0.47 0.47 0.49 0.50 0.51 0.44 0.32 0.35 0.29 0.40 0.40 0.30 0.29 0.31 0.36 0.42 0.48 0.35 0.29 0.36 0.42 0.41 0.76 0.92 0.96 0.96 0.97 1.11 1.06 1.38 1.38 1.48 1.44 1.20 1.09 1.17 1.32 1.44 1.57 1.54 1.51 1.51 1.53 1.41 1.36 1.47 1.47 1.44 1.34 1.56 1.23 1.07 1.03 0.88 0.92 1.01 0.94 0.95 1.11 1.23 1.27 1.30 1.35
0.58 0.58 0.58 0.58 0.58 0.57 0.56 0.55 0.54 0.55 0.55 0.55 0.54 0.52 0.50 0.49 0.48 0.48 0.47 0.47 0.46 0.47 0.46 0.46 0.46 0.47 0.47 0.47 0.49 0.50 0.40 0.31 0.29 0.45 0.53 0.56 0.40 0.31 0.34 0.40 0.42 0.44 0.34 0.30 0.35 0.40 0.60 0.75 0.80 0.82 0.84 0.85 0.98 1.21 1.20 1.41 1.26 1.39 1.28 1.16 1.28 1.40 1.32 1.48 1.64 1.65 1.56 1.61 1.46 1.48 1.52 1.43 1.39 1.43 1.36 1.14 1.03 0.97 0.97 1.05 0.92 0.86 0.94 1.07 1.16 1.19 1.24 1.27
0.57 0.57 0.57 0.57 0.57 0.56 0.55 0.54 0.54 0.55 0.56 0.56 0.56 0.54 0.53 0.50 0.49 0.48 0.47 0.47 0.47 0.46 0.46 0.46 0.46 0.46 0.46 0.47 0.45 0.47 0.27 0.22 0.40 0.60 0.58 0.52 0.54 0.33 0.35 0.40 0.42 0.40 0.32 0.30 0.32 0.39 0.60 0.64 0.65 0.67 0.71 0.71 0.86 1.04 1.14 1.34 1.41 1.42 1.26 1.31 1.43 1.52 1.35 1.55 1.63 1.70 1.60 1.63 1.54 1.49 1.35 1.29 1.45 1.47 1.32 1.14 0.94 0.90 0.97 1.04 1.09 1.01 1.01 1.06 1.07 1.14 1.22 1.21
0.56 0.56 0.56 0.56 0.55 0.55 0.54 0.53 0.54 0.55 0.57 0.57 0.57 0.56 0.54 0.52 0.51 0.50 0.48 0.47 0.46 0.46 0.46 0.46 0.46 0.44 0.45 0.45 0.43 0.39 0.20 0.12 0.44 0.60 0.68 0.54 0.55 0.46 0.35 0.36 0.39 0.32 0.26 0.24 0.27 0.34 0.52 0.58 0.57 0.57 0.61 0.69 0.79 0.84 1.12 1.27 1.44 1.08 1.28 1.32 1.50 1.53 1.45 1.62 1.64 1.65 1.60 1.49 1.43 1.36 1.44 1.48 1.33 1.28 1.31 1.21 1.03 1.07 1.16 1.10 1.12 1.11 1.08 1.11 1.13 1.14 1.16 1.15
0.55 0.55 0.55 0.54 0.54 0.54 0.53 0.52 0.53 0.55 0.57 0.58 0.58 0.58 0.57 0.55 0.53 0.51 0.50 0.49 0.48 0.47 0.46 0.46 0.44 0.45 0.43 0.45 0.43 0.29 0.18 0.13 0.25 0.39 0.68 0.61 0.60 0.53 0.43 0.34 0.39 0.26 0.22 0.20 0.24 0.35 0.49 0.53 0.54 0.56 0.61 0.66 0.78 0.86 1.10 1.20 1.39 1.20 1.12 1.37 1.36 1.52 1.50 1.68 1.59 1.68 1.63 1.51 1.46 1.53 1.53 1.35 1.33 1.12 1.32 1.20 1.17 1.21 1.22 1.17 1.16 1.13 1.14 1.13 1.08 1.12 1.12 1.11
0.55 0.55 0.55 0.54 0.54 0.54 0.53 0.52 0.52 0.54 0.56 0.58 0.58 0.58 0.58 0.57 0.55 0.53 0.52 0.51 0.51 0.50 0.50 0.47 0.46 0.45 0.45 0.36 0.24 0.15 0.19 0.22 0.50 0.61 0.63 0.65 0.64 0.59 0.54 0.43 0.31 0.22 0.20 0.19 0.23 0.39 0.51 0.50 0.50 0.64 0.65 0.62 0.68 0.81 1.11 1.15 1.28 1.17 1.21 1.38 1.41 1.53 1.53 1.69 1.65 1.65 1.64 1.55 1.57 1.54 1.36 1.34 1.37 1.28 1.27 1.20 1.22 1.25 1.25 1.24 1.19 1.12 1.10 1.10 1.07 1.09 1.11 1.12
0.54 0.54 0.54 0.54 0.53 0.53 0.53 0.52 0.51 0.52 0.53 0.55 0.56 0.56 0.56 0.55 0.54 0.53 0.52 0.52 0.51 0.51 0.50 0.50 0.49 0.48 0.49 0.37 0.23 0.12 0.29 0.51 0.59 0.67 0.63 0.60 0.62 0.62 0.57 0.39 0.29 0.20 0.18 0.19 0.26 0.44 0.47 0.50 0.59 0.66 0.57 0.60 0.74 0.81 1.09 1.05 1.00 1.25 1.25 1.41 1.43 1.47 1.56 1.67 1.61 1.66 1.62 1.57 1.54 1.38 1.35 1.42 1.40 1.44 1.22 1.21 1.23 1.29 1.28 1.24 1.21 1.11 1.04 1.04 1.05 1.08 1.08 1.09
0.52 0.53 0.53 0.52 0.52 0.52 0.52 0.52 0.51 0.51 0.52 0.53 0.53 0.53 0.53 0.54 0.53 0.52 0.52 0.52 0.52 0.52 0.51 0.50 0.50 0.49 0.41 0.28 0.20 0.11 0.39 0.66 0.69 0.69 0.59 0.63 0.63 0.54 0.44 0.38 0.28 0.20 0.16 0.19 0.28 0.40 0.42 0.56 0.64 0.75 0.74 0.66 0.81 0.84 1.07 1.05 1.02 1.29 1.32 1.40 1.40 1.46 1.52 1.67 1.56 1.60 1.59 1.51 1.55 1.40 1.38 1.34 1.45 1.24 1.04 1.24 1.29 1.32 1.27 1.22 1.21 1.11 0.99 1.03 1.03 1.07 1.10 1.11
0.50 0.52 0.52 0.52 0.52 0.52 0.51 0.51 0.50 0.49 0.49 0.51 0.51 0.52 0.52 0.52 0.53 0.52 0.51 0.52 0.53 0.53 0.52 0.51 0.52 0.50 0.33 0.28 0.12 0.13 0.44 0.57 0.57 0.65 0.57 0.62 0.59 0.47 0.38 0.35 0.30 0.18 0.14 0.18 0.31 0.40 0.49 0.63 0.71 0.72 0.67 0.58 0.72 0.84 1.02 1.15 1.26 1.30 1.34 1.37 1.43 1.46 1.55 1.63 1.59 1.54 1.55 1.40 1.54 1.51 1.34 1.33 1.34 1.24 1.02 1.18 1.29 1.31 1.21 1.19 1.17 1.09 0.98 1.00 1.02 1.05 1.10 1.11
0.49 0.50 0.51 0.51 0.51 0.51 0.51 0.50 0.49 0.48 0.47 0.48 0.50 0.51 0.52 0.55 0.57 0.57 0.55 0.53 0.53 0.53 0.51 0.53 0.53 0.49 0.40 0.26 0.15 0.11 0.35 0.42 0.45 0.53 0.58 0.64 0.54 0.46 0.36 0.35 0.28 0.16 0.13 0.17 0.33 0.44 0.59 0.67 0.70 0.66 0.54 0.66 0.78 1.02 1.05 1.31 1.31 1.34 1.35 1.11 1.28 1.38 1.40 1.50 1.44 1.52 1.56 1.38 1.53 1.54 1.27 1.19 1.20 1.07 1.14 1.26 1.29 1.28 1.20 1.15 1.11 1.01 0.97 0.99 0.98 1.06 1.10 1.08
0.49 0.49 0.50 0.51 0.51 0.51 0.50 0.49 0.48 0.47 0.45 0.46 0.49 0.52 0.55 0.58 0.60 0.59 0.58 0.54 0.54 0.54 0.54 0.52 0.53 0.47 0.32 0.14 0.16 0.24 0.28 0.36 0.40 0.46 0.63 0.59 0.46 0.45 0.35 0.32 0.25 0.16 0.14 0.18 0.33 0.50 0.65 0.67 0.68 0.61 0.69 0.64 0.74 0.77 1.23 1.37 1.32 1.36 1.32 1.21 1.16 1.19 1.25 1.44 1.52 1.57 1.49 1.44 1.59 1.50 0.89 1.02 1.14 1.21 1.19 1.29 1.26 1.23 1.17 1.08 0.99 0.96 0.97 0.98 1.00 1.04 1.09 1.10
0.49 0.48 0.49 0.50 0.51 0.50 0.49 0.48 0.47 0.46 0.45 0.46 0.50 0.54 0.56 0.60 0.61 0.60 0.58 0.56 0.59 0.59 0.57 0.55 0.52 0.43 0.33 0.18 0.25 0.38 0.42 0.43 0.46 0.42 0.43 0.45 0.36 0.39 0.37 0.29 0.27 0.20 0.17 0.19 0.38 0.55 0.59 0.62 0.63 0.62 0.70 0.59 0.66 1.22 1.11 1.17 1.28 1.04 1.12 1.28 1.08 0.99 1.05 1.41 1.46 1.51 1.36 1.53 1.55 1.43 0.87 0.97 1.11 1.18 1.27 1.30 1.23 1.17 1.09 1.01 0.93 0.93 0.95 0.97 1.00 1.05 1.07 1.08
0.48 0.48 0.47 0.49 0.50 0.50 0.49 0.47 0.47 0.45 0.45 0.49 0.53 0.55 0.58 0.61 0.64 0.63 0.61 0.63 0.64 0.66 0.63 0.64 0.56 0.44 0.28 0.28 0.50 0.51 0.56 0.55 0.42 0.34 0.36 0.35 0.32 0.35 0.35 0.28 0.23 0.21 0.22 0.29 0.42 0.53 0.56 0.55 0.53 0.52 0.54 0.82 0.85 0.91 0.92 0.99 1.10 1.10 0.96 0.90 1.08 1.00 1.10 1.30 1.50 1.47 1.25 1.40 1.54 1.30 0.93 0.99 1.10 1.18 1.39 1.41 1.28 1.15 1.03 0.96 0.91 0.90 0.93 0.97 1.00 1.05 1.06 1.05
0.48 0.47 0.47 0.47 0.49 0.50 0.48 0.46 0.46 0.45 0.48 0.53 0.55 0.57 0.61 0.65 0.68 0.67 0.66 0.68 0.69 0.66 0.68 0.59 0.56 0.49 0.38 0.27 0.39 0.56 0.44 0.37 0.34 0.32 0.36 0.30 0.32 0.34 0.38 0.30 0.24 0.22 0.32 0.40 0.46 0.48 0.50 0.48 0.46 0.50 0.54 0.75 0.77 0.79 0.81 0.82 0.94 1.05 0.96 0.91 0.95 1.02 1.06 1.11 1.38 1.50 1.48 1.40 1.44 1.26 0.96 1.08 1.09 1.21 1.32 1.37 1.24 1.10 1.00 0.92 0.91 0.90 0.92 0.96 1.01 1.03 1.04 1.05
0.48 0.47 0.46 0.46 0.48 0.49 0.47 0.46 0.45 0.44 0.50 0.54 0.54 0.56 0.58 0.64 0.72 0.76 0.78 0.76 0.73 0.72 0.68 0.52 0.60 0.53 0.30 0.51 0.61 0.43 0.37 0.41 0.42 0.35 0.34 0.36 0.37 0.41 0.41 0.35 0.25 0.24 0.37 0.41 0.43 0.42 0.45 0.42 0.48 0.48 0.53 0.46 0.49 0.65 0.61 0.67 0.76 0.87 0.99 0.91 1.01 0.97 1.07 1.01 1.33 1.45 1.46 1.41 1.20 1.32 1.09 1.08 1.16 1.23 1.28 1.34 1.18 1.05 0.93 0.89 0.91 0.91 0.89 0.95 1.00 0.99 1.01 1.01
0.49 0.46 0.45 0.46 0.47 0.47 0.46 0.45 0.47 0.47 0.47 0.49 0.46 0.48 0.56 0.66 0.78 0.83 0.78 0.78 0.76 0.74 0.71 0.81 0.66 0.48 0.33 0.49 0.32 0.37 0.44 0.41 0.41 0.37 0.43 0.42 0.46 0.45 0.42 0.36 0.29 0.29 0.36 0.37 0.40 0.37 0.42 0.39 0.40 0.38 0.43 0.43 0.44 0.55 0.50 0.53 0.67 0.74 0.83 0.85 0.90 1.02 1.10 1.06 1.06 1.25 1.38 1.40 1.23 1.22 1.13 1.13 1.21 1.28 1.26 1.28 1.18 1.03 0.92 0.90 0.90 0.89 0.88 0.94 0.98 0.98 1.01 1.01
0.50 0.46 0.44 0.45 0.46 0.45 0.46 0.48 0.51 0.54 0.53 0.50 0.48 0.55 0.62 0.66 0.77 0.80 0.64 0.65 0.53 0.44 0.36 0.44 0.41 0.26 0.19 0.30 0.44 0.49 0.46 0.45 0.47 0.43 0.39 0.42 0.48 0.51 0.47 0.43 0.34 0.30 0.31 0.32 0.34 0.38 0.39 0.38 0.35 0.33 0.32 0.38 0.40 0.42 0.51 0.69 0.79 0.80 0.84 0.88 0.97 0.92 0.98 1.04 1.20 1.38 1.35 1.24 1.21 1.17 1.05 1.14 1.22 1.23 1.27 1.28 1.21 1.03 0.95 0.94 0.93 0.93 0.91 0.95 0.96 0.99 1.01 1.00
0.49 0.46 0.44 0.45 0.44 0.46 0.49 0.52 0.54 0.55 0.57 0.50 0.45 0.45 0.48 0.43 0.42 0.41 0.52 0.54 0.39 0.35 0.34 0.36 0.43 0.40 0.39 0.39 0.44 0.54 0.54 0.55 0.40 0.42 0.41 0.42 0.45 0.45 0.43 0.42 0.35 0.30 0.30 0.26 0.32 0.35 0.38 0.27 0.23 0.22 0.29 0.39 0.47 0.53 0.60 0.76 0.86 0.90 0.94 0.95 0.96 0.98 1.01 1.18 1.25 1.39 1.48 1.28 1.22 1.18 1.18 1.22 1.24 1.26 1.30 1.30 1.23 1.06 0.98 0.92 0.92 0.93 0.93 0.94 0.94 0.96 1.00 1.01
0.48 0.44 0.44 0.44 0.44 0.48 0.51 0.54 0.56 0.57 0.58 0.54 0.51 0.42 0.31 0.31 0.28 0.29 0.38 0.37 0.44 0.45 0.42 0.39 0.37 0.35 0.32 0.43 0.42 0.41 0.39 0.39 0.37 0.40 0.39 0.41 0.41 0.36 0.34 0.33 0.30 0.24 0.26 0.30 0.30 0.43 0.38 0.26 0.23 0.24 0.27 0.39 0.52 0.66 0.64 0.80 0.84 0.84 0.87 0.88 0.94 0.98 0.91 1.12 1.18 1.39 1.45 1.25 1.20 1.26 1.19 1.20 1.27 1.30 1.36 1.36 1.21 1.02 0.99 0.94 0.92 0.92 0.94 0.96 0.93 0.93 0.98 1.02
0.46 0.44 0.43 0.43 0.46 0.50 0.53 0.55 0.57 0.58 0.59 0.58 0.54 0.45 0.47 0.49 0.54 0.57 0.51 0.36 0.41 0.45 0.49 0.45 0.48 0.39 0.40 0.43 0.43 0.44 0.37 0.31 0.31 0.36 0.43 0.41 0.39 0.28 0.30 0.28 0.26 0.24 0.28 0.31 0.33 0.33 0.29 0.23 0.23 0.25 0.27 0.33 0.57 0.62 0.62 0.74 0.77 0.83 0.81 0.84 0.86 0.94 1.05 1.17 1.22 1.38 1.39 1.27 1.16 1.25 1.13 1.18 1.26 1.31 1.38 1.34 1.26 1.11 1.06 1.02 0.97 0.94 0.94 0.96 0.94 0.96 0.97 1.03
0.45 0.43 0.43 0.43 0.49 0.52 0.54 0.58 0.57 0.59 0.58 0.56 0.51 0.53 0.52 0.61 0.67 0.69 0.62 0.50 0.42 0.48 0.48 0.44 0.40 0.37 0.37 0.45 0.45 0.38 0.31 0.34 0.30 0.39 0.41 0.37 0.34 0.33 0.30 0.27 0.25 0.27 0.29 0.31 0.28 0.27 0.23 0.21 0.23 0.26 0.27 0.27 0.46 0.54 0.57 0.72 0.77 0.78 0.80 0.75 0.71 0.92 0.87 0.80 1.09 1.23 1.32 1.26 1.17 1.22 1.12 1.20 1.29 1.36 1.37 1.39 1.35 1.19 1.15 1.10 1.07 1.03 0.96 0.97 0.95 0.95 0.96 1.00
0.45 0.43 0.42 0.43 0.50 0.54 0.57 0.58 0.60 0.59 0.58 0.55 0.54 0.53 0.62 0.67 0.70 0.70 0.60 0.44 0.41 0.45 0.50 0.49 0.46 0.40 0.33 0.31 0.34 0.32 0.28 0.33 0.39 0.40 0.50 0.41 0.30 0.34 0.31 0.29 0.26 0.26 0.25 0.28 0.29 0.26 0.22 0.22 0.24 0.25 0.26 0.27 0.39 0.43 0.46 0.65 0.66 0.78 0.76 0.72 0.75 0.83 0.90 0.88 0.96 1.17 1.31 1.35 1.37 1.24 1.12 1.14 1.20 1.19 1.25 1.36 1.42 1.27 1.21 1.13 1.11 1.11 1.07 1.07 1.04 0.99 1.02 1.01
0.44 0.43 0.42 0.43 0.50 0.56 0.56 0.58 0.53 0.54 0.55 0.56 0.56 0.62 0.66 0.69 0.70 0.70 0.55 0.48 0.47 0.44 0.54 0.52 0.54 0.45 0.45 0.46 0.41 0.33 0.36 0.42 0.44 0.45 0.49 0.46 0.34 0.32 0.29 0.31 0.28 0.25 0.25 0.28 0.28 0.25 0.23 0.27 0.30 0.25 0.27 0.34 0.40 0.37 0.39 0.57 0.60 0.71 0.80 0.74 0.77 0.87 0.90 0.94 1.04 1.06 1.02 1.04 1.26 1.14 0.88 0.93 1.13 1.18 1.21 1.34 1.36 1.21 1.26 1.12 1.06 1.09 1.08 1.07 1.02 0.99 1.05 1.08
0.44 0.43 0.42 0.43 0.50 0.53 0.57 0.47 0.51 0.54 0.48 0.45 0.53 0.62 0.67 0.71 0.73 0.73 0.55 0.39 0.30 0.37 0.40 0.30 0.45 0.37 0.47 0.38 0.37 0.32 0.45 0.36 0.48 0.50 0.53 0.53 0.41 0.38 0.34 0.28 0.26 0.21 0.24 0.26 0.28 0.27 0.26 0.28 0.27 0.24 0.33 0.36 0.39 0.34 0.48 0.62 0.63 0.64 0.70 0.85 0.87 0.93 0.94 0.91 0.94 0.98 0.81 0.77 1.09 1.28 0.88 0.82 1.10 1.11 1.20 1.29 1.29 1.21 1.25 1.16 1.09 1.09 1.10 1.06 1.05 1.02 1.07 1.07
0.44 0.43 0.42 0.43 0.50 0.55 0.42 0.34 0.53 0.50 0.45 0.49 0.61 0.64 0.67 0.71 0.76 0.70 0.48 0.34 0.29 0.35 0.35 0.37 0.41 0.41 0.44 0.38 0.34 0.45 0.36 0.43 0.56 0.57 0.53 0.54 0.44 0.47 0.35 0.31 0.33 0.31 0.28 0.27 0.23 0.20 0.26 0.26 0.26 0.25 0.26 0.37 0.35 0.32 0.39 0.61 0.61 0.60 0.82 0.89 0.94 0.93 0.89 0.88 0.90 0.93 0.89 1.11 1.17 1.20 1.09 0.86 0.86 1.05 1.25 1.29 1.25 1.20 1.19 1.17 1.12 1.13 1.12 1.08 1.08 1.07 1.10 1.13
0.43 0.43 0.42 0.45 0.50 0.53 0.44 0.47 0.47 0.43 0.45 0.54 0.62 0.65 0.68 0.73 0.75 0.66 0.47 0.22 0.19 0.33 0.32 0.38 0.39 0.47 0.40 0.35 0.36 0.41 0.49 0.58 0.46 0.51 0.53 0.56 0.48 0.44 0.40 0.34 0.33 0.32 0.33 0.28 0.19 0.22 0.25 0.23 0.24 0.23 0.25 0.30 0.30 0.33 0.36 0.54 0.58 0.70 0.87 0.91 0.90 0.95 0.95 0.96 0.93 0.91 0.95 0.92 0.87 1.03 1.14 0.88 0.85 1.02 1.23 1.29 1.17 1.17 1.15 1.15 1.13 1.13 1.14 1.10 1.10 1.11 1.13 1.16
0.42 0.42 0.42 0.46 0.51 0.55 0.58 0.50 0.47 0.42 0.53 0.59 0.61 0.64 0.72 0.77 0.67 0.49 0.35 0.21 0.29 0.30 0.41 0.34 0.50 0.44 0.41 0.39 0.40 0.47 0.46 0.57 0.46 0.53 0.56 0.51 0.48 0.43 0.36 0.38 0.38 0.35 0.34 0.29 0.22 0.25 0.30 0.25 0.24 0.26 0.27 0.27 0.32 0.40 0.46 0.70 0.68 0.91 0.96 1.03 1.04 1.04 1.01 0.99 0.92 0.90 0.92 0.84 0.75 0.89 1.05 0.81 0.82 1.01 1.08 1.21 1.17 1.13 1.14 1.17 1.18 1.16 1.15 1.12 1.12 1.13 1.15 1.19
0.42 0.41 0.43 0.47 0.50 0.51 0.53 0.58 0.47 0.52 0.59 0.60 0.61 0.69 0.74 0.68 0.56 0.36 0.28 0.20 0.32 0.24 0.33 0.36 0.38 0.35 0.43 0.37 0.37 0.45 0.46 0.51 0.54 0.51 0.47 0.41 0.40 0.40 0.41 0.45 0.38 0.34 0.29 0.30 0.28 0.29 0.31 0.34 0.29 0.25 0.24 0.25 0.36 0.56 0.69 0.75 0.81 1.02 0.99 0.91 0.93 0.94 0.93 0.97 0.95 0.93 0.83 0.68 0.79 0.96 1.03 0.91 0.75 0.92 1.01 1.05 1.08 1.19 1.20 1.20 1.24 1.22 1.19 1.17 1.18 1.16 1.16 1.18
0.41 0.43 0.43 0.48 0.40 0.48 0.50 0.42 0.50 0.61 0.61 0.62 0.64 0.67 0.65 0.57 0.38 0.31 0.21 0.24 0.33 0.26 0.33 0.34 0.33 0.40 0.38 0.36 0.36 0.43 0.45 0.47 0.50 0.49 0.43 0.38 0.28 0.36 0.39 0.36 0.38 0.30 0.28 0.28 0.26 0.28 0.29 0.30 0.27 0.28 0.29 0.31 0.57 0.64 0.82 0.92 0.89 0.88 0.86 0.82 0.81 0.79 0.89 0.85 0.84 0.90 0.65 0.62 0.84 1.01 1.01 1.01 0.72 0.87 1.05 1.17 1.29 1.30 1.27 1.18 1.21 1.20 1.18 1.17 1.18 1.19 1.19 1.21
0.42 0.44 0.45 0.45 0.48 0.56 0.41 0.40 0.49 0.55 0.54 0.56 0.57 0.60 0.53 0.31 0.38 0.24 0.22 0.44 0.23 0.23 0.26 0.26 0.34 0.35 0.38 0.40 0.42 0.44 0.45 0.48 0.50 0.44 0.42 0.33 0.25 0.32 0.31 0.28 0.29 0.24 0.22 0.25 0.23 0.27 0.26 0.27 0.30 0.34 0.48 0.55 0.58 0.64 0.78 0.90 0.95 0.81 0.80 0.76 0.56 0.57 0.61 0.51 0.66 0.55 0.60 0.62 0.86 1.02 1.05 0.95 0.88 1.00 1.12 1.20 1.21 1.26 1.34 1.30 1.26 1.25 1.21 1.20 1.21 1.22 1.23 1.25
0.46 0.45 0.44 0.46 0.51 0.46 0.47 0.46 0.49 0.50 0.52 0.50 0.58 0.57 0.40 0.28 0.21 0.28 0.29 0.28 0.20 0.24 0.24 0.27 0.27 0.33 0.35 0.38 0.40 0.45 0.47 0.41 0.47 0.43 0.42 0.38 0.26 0.28 0.32 0.32 0.32 0.30 0.24 0.28 0.26 0.24 0.24 0.29 0.30 0.37 0.50 0.71 0.61 0.56 0.71 0.70 0.83 0.73 0.64 0.61 0.49 0.47 0.45 0.40 0.52 0.63 0.64 0.77 0.97 0.94 1.07 0.88 1.04 1.08 1.20 1.20 1.27 1.29 1.36 1.37 1.37 1.33 1.27 1.23 1.23 1.26 1.26 1.28
0.46 0.46 0.38 0.45 0.46 0.45 0.45 0.51 0.52 0.54 0.46 0.52 0.57 0.47 0.37 0.26 0.23 0.37 0.29 0.26 0.22 0.24 0.25 0.25 0.26 0.34 0.35 0.35 0.38 0.43 0.43 0.47 0.45 0.43 0.42 0.37 0.31 0.28 0.31 0.33 0.33 0.31 0.33 0.30 0.27 0.27 0.22 0.24 0.27 0.35 0.40 0.73 0.60 0.55 0.62 0.64 0.72 0.65 0.72 0.63 0.54 0.48 0.41 0.37 0.48 0.45 0.52 0.64 0.81 1.03 0.85 0.78 0.81 0.90 1.26 1.28 1.34 1.39 1.40 1.39 1.42 1.43 1.43 1.37 1.34 1.31 1.28 1.28
0.46 0.45 0.43 0.47 0.47 0.46 0.48 0.52 0.53 0.51 0.48 0.46 0.48 0.37 0.25 0.25 0.30 0.27 0.26 0.22 0.22 0.23 0.24 0.29 0.28 0.31 0.34 0.36 0.39 0.43 0.41 0.42 0.46 0.44 0.41 0.38 0.31 0.32 0.31 0.31 0.34 0.35 0.35 0.29 0.34 0.32 0.28 0.27 0.37 0.40 0.45 0.60 0.59 0.66 0.70 0.67 0.69 0.74 0.75 0.73 0.60 0.49 0.59 0.45 0.58 0.59 0.61 0.64 0.68 0.81 0.79 0.93 0.91 1.26 1.34 1.39 1.38 1.37 1.42 1.37 1.39 1.43 1.44 1.42 1.33 1.29 1.25 1.25
0.43 0.38 0.41 0.39 0.41 0.41 0.49 0.53 0.54 0.51 0.47 0.44 0.38 0.30 0.27 0.30 0.28 0.32 0.27 0.27 0.22 0.22 0.24 0.28 0.29 0.29 0.31 0.34 0.39 0.40 0.45 0.42 0.43 0.42 0.38 0.40 0.40 0.38 0.40 0.43 0.40 0.43 0.38 0.34 0.35 0.31 0.32 0.27 0.38 0.42 0.44 0.44 0.61 0.67 0.72 0.70 0.47 0.65 0.67 0.52 0.58 0.75 0.61 0.56 0.63 0.73 0.74 0.68 0.62 0.86 0.81 0.90 1.12 1.13 1.23 1.35 1.32 1.29 1.34 1.33 1.34 1.39 1.44 1.41 1.32 1.31 1.26 1.25
0.34 0.38 0.30 0.39 0.45 0.50 0.56 0.57 0.55 0.47 0.45 0.43 0.35 0.29 0.36 0.37 0.40 0.39 0.34 0.25 0.20 0.23 0.26 0.23 0.27 0.29 0.29 0.32 0.33 0.35 0.39 0.40 0.43 0.43 0.38 0.43 0.38 0.43 0.41 0.42 0.46 0.44 0.43 0.38 0.34 0.40 0.32 0.32 0.37 0.38 0.37 0.46 0.51 0.51 0.58 0.64 0.56 0.63 0.51 0.58 0.78 0.83 0.73 0.55 0.46 0.60 0.61 0.53 0.61 0.77 0.69 0.75 0.78 0.67 1.12 1.21 1.23 1.23 1.25 1.27 1.28 1.33 1.40 1.35 1.30 1.30 1.27 1.25
0.34 0.36 0.34 0.36 0.44 0.54 0.60 0.60 0.52 0.44 0.44 0.38 0.33 0.36 0.42 0.37 0.39 0.39 0.35 0.30 0.23 0.23 0.25 0.27 0.31 0.31 0.30 0.30 0.32 0.32 0.37 0.36 0.43 0.45 0.41 0.44 0.38 0.47 0.42 0.42 0.46 0.43 0.44 0.48 0.38 0.40 0.40 0.31 0.34 0.36 0.37 0.45 0.45 0.44 0.51 0.53 0.53 0.55 0.49 0.65 0.61 0.50 0.44 0.60 0.58 0.46 0.48 0.49 0.56 0.64 0.72 0.74 0.79 0.79 0.99 1.00 1.08 1.16 1.23 1.27 1.27 1.28 1.35 1.31 1.29 1.30 1.30 1.28
0.43 0.44 0.34 0.40 0.47 0.57 0.61 0.62 0.48 0.42 0.35 0.33 0.35 0.32 0.38 0.40 0.38 0.37 0.33 0.24 0.24 0.22 0.22 0.30 0.30 0.32 0.33 0.33 0.34 0.35 0.36 0.33 0.42 0.42 0.41 0.43 0.38 0.45 0.43 0.44 0.41 0.46 0.48 0.47 0.42 0.40 0.39 0.31 0.30 0.36 0.36 0.42 0.44 0.49 0.44 0.44 0.49 0.48 0.59 0.59 0.65 0.57 0.54 0.49 0.52 0.57 0.57 0.51 0.52 0.53 0.65 0.59 0.79 0.83 0.95 0.96 1.05 1.13 1.24 1.30 1.27 1.28 1.34 1.34 1.32 1.31 1.29 1.26
0.45 0.42 0.41 0.51 0.58 0.63 0.66 0.57 0.46 0.45 0.40 0.33 0.36 0.37 0.41 0.36 0.33 0.30 0.27 0.23 0.23 0.21 0.25 0.31 0.35 0.32 0.34 0.34 0.34 0.32 0.37 0.40 0.40 0.42 0.43 0.43 0.43 0.46 0.44 0.45 0.42 0.45 0.47 0.48 0.46 0.45 0.37 0.38 0.29 0.32 0.39 0.42 0.37 0.41 0.41 0.46 0.40 0.38 0.36 0.40 0.50 0.54 0.68 0.61 0.63 0.55 0.52 0.50 0.51 0.50 0.50 0.60 0.77 0.99 0.98 1.01 1.07 1.15 1.27 1.32 1.31 1.28 1.30 1.36 1.39 1.40 1.37 1.32
0.54 0.44 0.45 0.62 0.63 0.68 0.59 0.51 0.41 0.38 0.38 0.39 0.42 0.39 0.40 0.37 0.32 0.25 0.27 0.29 0.28 0.29 0.26 0.31 0.34 0.34 0.34 0.34 0.33 0.36 0.36 0.38 0.40 0.40 0.40 0.44 0.43 0.36 0.44 0.41 0.42 0.41 0.46 0.46 0.45 0.44 0.39 0.38 0.33 0.34 0.34 0.34 0.37 0.38 0.38 0.49 0.45 0.40 0.37 0.35 0.45 0.50 0.50 0.44 0.46 0.60 0.60 0.54 0.50 0.49 0.46 0.62 0.87 1.05 1.04 1.06 1.12 1.16 1.30 1.34 1.27 1.26 1.27 1.35 1.41 1.44 1.46 1.40
0.46 0.37 0.42 0.58 0.62 0.66 0.51 0.37 0.36 0.41 0.38 0.35 0.35 0.39 0.36 0.41 0.37 0.25 0.26 0.27 0.29 0.27 0.33 0.35 0.36 0.35 0.36 0.35 0.36 0.36 0.36 0.36 0.39 0.38 0.41 0.43 0.44 0.42 0.43 0.43 0.40 0.43 0.40 0.44 0.42 0.47 0.44 0.43 0.39 0.32 0.35 0.35 0.38 0.39 0.39 0.47 0.44 0.42 0.40 0.35 0.38 0.39 0.48 0.46 0.42 0.49 0.58 0.59 0.65 0.61 0.52 0.59 0.98 1.08 1.08 1.10 1.15 1.15 1.19 1.30 1.27 1.28 1.32 1.38 1.46 1.51 1.53 1.51
0.44 0.43 0.53 0.58 0.60 0.59 0.48 0.35 0.37 0.39 0.37 0.40 0.42 0.42 0.41 0.37 0.30 0.27 0.25 0.25 0.26 0.27 0.30 0.31 0.33 0.35 0.37 0.37 0.37 0.37 0.37 0.35 0.37 0.35 0.39 0.41 0.42 0.45 0.43 0.43 0.41 0.39 0.40 0.40 0.46 0.47 0.46 0.41 0.35 0.33 0.36 0.38 0.39 0.37 0.36 0.42 0.45 0.37 0.36 0.36 0.33 0.32 0.42 0.48 0.44 0.53 0.50 0.56 0.52 0.57 0.51 0.65 0.96 1.11 1.11 1.14 1.18 1.24 1.25 1.21 1.21 1.29 1.33 1.39 1.47 1.53 1.55 1.54
0.43 0.46 0.50 0.61 0.65 0.60 0.45 0.34 0.32 0.36 0.36 0.42 0.42 0.38 0.37 0.34 0.27 0.27 0.24 0.24 0.24 0.23 0.21 0.28 0.32 0.36 0.36 0.40 0.38 0.36 0.37 0.33 0.36 0.35 0.35 0.37 0.38 0.41 0.42 0.44 0.42 0.37 0.37 0.38 0.40 0.47 0.38 0.42 0.39 0.31 0.29 0.30 0.30 0.31 0.31 0.35 0.39 0.35 0.32 0.34 0.32 0.34 0.35 0.38 0.42 0.52 0.41 0.49 0.51 0.51 0.46 0.57 0.92 1.10 1.12 1.15 1.18 1.21 1.26 1.32 1.34 1.29 1.34 1.37 1.43 1.51 1.57 1.60
0.48 0.58 0.60 0.61 0.67 0.61 0.44 0.43 0.38 0.34 0.35 0.35 0.35 0.34 0.34 0.34 0.31 0.29 0.26 0.23 0.22 0.23 0.23 0.26 0.32 0.34 0.36 0.40 0.38 0.38 0.38 0.36 0.34 0.37 0.37 0.36 0.37 0.40 0.40 0.43 0.46 0.41 0.40 0.44 0.48 0.55 0.42 0.40 0.39 0.31 0.27 0.25 0.24 0.23 0.25 0.27 0.31 0.34 0.35 0.33 0.27 0.24 0.24 0.25 0.25 0.35 0.30 0.48 0.52 0.46 0.46 0.67 0.91 1.04 1.05 1.08 1.14 1.18 1.26 1.31 1.35 1.37 1.37 1.42 1.46 1.51 1.58 1.64
0.39 0.37 0.47 0.55 0.64 0.59 0.51 0.50 0.41 0.35 0.33 0.32 0.31 0.33 0.33 0.30 0.28 0.29 0.26 0.25 0.23 0.22 0.25 0.29 0.31 0.32 0.35 0.37 0.35 0.37 0.38 0.40 0.38 0.36 0.37 0.37 0.37 0.38 0.41 0.42 0.41 0.44 0.44 0.47 0.48 0.52 0.44 0.41 0.42 0.39 0.35 0.33 0.34 0.38 0.40 0.42 0.36 0.30 0.47 0.34 0.33 0.30 0.24 0.22 0.26 0.30 0.28 0.43 0.44 0.50 0.50 0.61 0.76 0.88 0.97 1.01 1.07 1.09 1.13 1.23 1.27 1.31 1.38 1.48 1.59 1.61 1.64 1.67
0.51 0.40 0.47 0.48 0.58 0.58 0.55 0.50 0.46 0.44 0.38 0.38 0.31 0.33 0.30 0.29 0.29 0.25 0.29 0.22 0.24 0.21 0.29 0.25 0.27 0.27 0.32 0.34 0.35 0.35 0.38 0.38 0.40 0.38 0.38 0.38 0.39 0.39 0.42 0.41 0.42 0.44 0.44 0.44 0.47 0.49 0.44 0.37 0.40 0.39 0.41 0.40 0.41 0.41 0.43 0.41 0.44 0.53 0.43 0.37 0.46 0.42 0.33 0.26 0.23 0.24 0.35 0.39 0.37 0.53 0.61 0.56 0.74 0.89 0.96 0.99 1.05 1.11 1.17 1.25 1.30 1.32 1.34 1.40 1.56 1.68 1.69 1.68
0.42 0.54 0.60 0.76 0.56 0.47 0.47 0.47 0.52 0.49 0.50 0.45 0.36 0.34 0.31 0.28 0.28 0.24 0.28 0.26 0.23 0.23 0.22 0.29 0.32 0.32 0.32 0.33 0.35 0.34 0.37 0.38 0.38 0.37 0.41 0.40 0.39 0.39 0.38 0.39 0.39 0.42 0.43 0.43 0.48 0.47 0.43 0.37 0.40 0.39 0.43 0.44 0.51 0.52 0.53 0.62 0.63 0.60 0.51 0.46 0.43 0.48 0.41 0.34 0.35 0.35 0.45 0.36 0.39 0.62 0.67 0.68 0.84 0.96 1.03 1.09 1.14 1.14 1.22 1.28 1.37 1.42 1.41 1.40 1.49 1.56 1.60 1.61
0.63 0.64 0.60 0.81 0.56 0.61 0.57 0.61 0.58 0.54 0.47 0.43 0.38 0.35 0.31 0.29 0.28 0.29 0.27 0.27 0.28 0.27 0.27 0.27 0.28 0.31 0.35 0.36 0.34 0.34 0.37 0.32 0.34 0.40 0.40 0.40 0.39 0.37 0.36 0.36 0.39 0.42 0.43 0.41 0.44 0.47 0.44 0.40 0.42 0.42 0.45 0.50 0.55 0.57 0.58 0.56 0.53 0.54 0.59 0.56 0.53 0.50 0.52 0.49 0.45 0.50 0.52 0.57 0.64 0.67 0.70 0.72 0.88 0.99 1.08 1.16 1.26 1.26 1.27 1.34 1.38 1.41 1.49 1.51 1.45 1.50 1.52 1.54
0.53 0.47 0.48 0.68 0.69 0.63 0.62 0.63 0.59 0.51 0.42 0.42 0.35 0.35 0.33 0.30 0.28 0.28 0.29 0.28 0.27 0.27 0.30 0.27 0.28 0.30 0.32 0.33 0.32 0.33 0.36 0.38 0.39 0.37 0.42 0.40 0.38 0.38 0.36 0.36 0.35 0.39 0.40 0.39 0.42 0.47 0.41 0.38 0.44 0.43 0.44 0.45 0.52 0.57 0.59 0.60 0.54 0.54 0.61 0.62 0.56 0.56 0.59 0.61 0.57 0.58 0.59 0.62 0.68 0.67 0.64 0.71 0.99 1.17 1.17 1.26 1.30 1.33 1.33 1.30 1.32 1.36 1.41 1.52 1.55 1.53 1.55 1.57
0.69 0.74 0.72 0.59 0.51 0.53 0.59 0.58 0.52 0.48 0.40 0.41 0.33 0.35 0.32 0.32 0.31 0.32 0.28 0.32 0.29 0.27 0.28 0.26 0.26 0.29 0.31 0.30 0.30 0.31 0.36 0.41 0.38 0.39 0.39 0.39 0.34 0.38 0.35 0.38 0.39 0.35 0.36 0.36 0.38 0.41 0.40 0.39 0.45 0.45 0.41 0.42 0.50 0.54 0.54 0.56 0.57 0.54 0.56 0.60 0.58 0.57 0.57 0.64 0.59 0.72 0.61 0.58 0.64 0.62 0.58 0.69 0.97 1.15 1.18 1.20 1.21 1.21 1.21 1.25 1.28 1.33 1.39 1.40 1.44 1.51 1.57 1.61
0.71 0.79 0.77 0.66 0.46 0.55 0.51 0.57 0.54 0.45 0.38 0.44 0.38 0.36 0.34 0.32 0.34 0.34 0.32 0.35 0.34 0.33 0.30 0.27 0.24 0.29 0.30 0.29 0.29 0.34 0.36 0.35 0.36 0.39 0.39 0.38 0.38 0.39 0.39 0.39 0.38 0.36 0.35 0.34 0.37 0.35 0.38 0.39 0.40 0.43 0.39 0.41 0.49 0.52 0.50 0.46 0.43 0.41 0.53 0.60 0.71 0.71 0.74 0.75 0.78 0.80 0.76 0.77 0.61 0.54 0.64 0.90 1.01 1.10 1.05 1.11 1.16 1.17 1.15 1.14 1.17 1.24 1.31 1.39 1.42 1.41 1.50 1.60
Wind_Speed
10 10 10 10 10 10 10 10 10 10 10 10 10 10 10 9 10 10 10 11 11 12 12 12 12 12 12 12 12 12 13 13 13 12 13 12 13 13 13 12 12 13 12 10 10 10 10 10 11 10 9 8 8 7 6 4 3 3 4 5 5 4 3 7 11 13 13 12 11 11 11 10 9 10 8 9 10 11 11 11 12 10 11 13 15 17 17 16
11 11 11 11 11 11 11 11 11 11 11 11 11 10 10 10 10 10 10 11 11 12 12 12 12 12 13 13 13 13 13 13 13 14 14 13 13 14 15 14 12 12 12 11 12 11 11 10 11 10 9 8 8 7 6 5 3 3 4 4 4 4 2 7 12 13 13 12 12 13 13 12 11 10 8 9 10 11 11 11 12 12 13 15 16 17 16 16
12 12 12 12 12 12 12 12 11 11 11 11 11 11 11 11 11 11 11 11 11 11 12 12 12 13 13 13 13 13 13 13 13 13 12 12 13 14 15 15 13 13 13 12 12 12 12 11 11 10 9 8 7 7 6 5 4 3 4 5 4 3 1 8 13 13 13 12 12 12 12 12 12 10 8 10 11 11 11 11 12 13 14 16 17 17 16 15
13 13 13 13 12 12 12 12 12 12 12 12 12 12 12 12 12 12 12 11 11 11 11 12 12 13 13 13 13 13 13 12 12 12 10 10 13 14 15 15 14 14 13 12 12 13 12 11 10 10 9 9 8 7 6 5 4 3 3 4 4 1 3 9 11 12 13 13 13 13 12 12 12 11 9 11 12 10 10 11 13 15 15 16 17 18 16 15
14 14 14 14 14 13 13 13 13 12 12 12 12 12 12 12 12 12 12 12 12 12 12 12 13 13 13 14 14 13 12 11 11 12 11 10 11 14 14 15 15 14 14 13 13 13 13 12 11 10 10 9 8 7 7 6 4 3 3 4 3 1 3 7 9 11 12 13 14 14 14 13 13 12 10 11 11 9 10 12 14 15 15 16 17 17 16 15
14 15 15 15 15 14 14 14 13 13 13 13 13 13 12 12 12 12 12 12 12 12 13 13 13 13 13 14 14 13 12 11 12 12 12 11 11 13 14 15 15 14 14 14 14 14 14 13 12 12 10 9 8 7 7 6 5 4 4 4 3 3 4 7 9 11 12 13 14 13 14 13 11 11 10 9 10 10 12 14 15 15 16 17 16 15 15 14
15 15 15 15 15 15 15 14 14 13 13 13 13 13 13 13 13 13 13 13 13 13 13 13 13 13 13 14 14 13 13 13 14 13 12 12 11 12 13 14 15 15 15 15 15 15 14 14 13 12 10 9 9 8 7 7 6 5 3 3 3 3 4 7 10 11 12 14 13 12 14 12 11 11 9 9 11 13 14 15 15 15 17 16 14 14 14 13
15 16 16 16 16 15 15 15 14 14 14 14 14 14 13 13 13 13 14 13 14 14 14 14 14 14 13 13 14 14 14 15 14 13 13 12 12 13 14 14 15 16 16 16 16 16 15 14 15 13 10 9 10 9 8 7 6 5 4 4 3 2 4 7 10 13 14 14 12 12 13 12 11 11 8 10 15 16 15 15 15 15 16 16 14 14 13 12
16 16 16 16 16 16 15 15 15 14 14 14 14 14 14 14 14 14 14 14 15 14 15 15 15 15 14 14 14 14 14 14 13 13 13 13 13 13 14 15 16 17 17 17 17 16 15 15 15 13 10 10 9 9 9 7 7 6 6 5 3 3 5 8 10 13 13 12 11 12 12 12 12 10 9 12 15 17 16 16 15 15 15 15 15 14 13 12
17 17 17 17 16 16 16 15 15 15 15 15 15 15 15 15 15 15 15 15 15 16 16 16 15 15 15 15 13 13 14 13 13 13 13 15 15 15 16 16 17 18 18 18 18 17 16 16 14 11 10 10 10 10 10 8 7 6 5 4 3 4 5 8 10 12 12 12 12 11 12 13 13 10 10 13 16 17 16 16 15 15 15 15 15 14 13 12
17 17 17 17 17 17 16 16 16 15 15 15 16 16 16 16 16 16 16 16 16 16 16 16 16 15 15 15 14 14 14 12 13 14 14 15 15 16 18 18 18 19 19 18 19 19 18 17 14 11 10 9 9 10 9 7 6 6 6 4 3 4 5 7 10 11 11 12 12 10 11 12 12 11 11 15 17 17 16 16 15 14 14 15 15 14 13 12
18 18 17 17 17 17 16 16 16 16 16 16 16 16 16 16 16 16 16 16 16 16 16 16 16 15 15 16 16 16 15 14 14 15 15 15 15 16 18 18 18 20 20 19 19 20 19 18 15 13 12 8 8 9 8 7 6 6 5 5 4 4 6 7 9 11 11 12 12 10 11 11 11 11 14 17 17 17 16 15 15 15 14 15 15 14 12 12
18 18 17 17 17 17 17 17 16 16 16 16 16 16 16 16 16 16 16 16 16 16 16 16 15 15 15 16 16 16 16 17 16 16 17 17 16 16 17 18 19 20 21 20 20 20 20 18 16 16 14 10 9 9 9 7 6 5 4 5 5 5 7 8 8 10 11 12 11 10 12 11 10 12 16 19 17 17 16 15 15 15 15 15 14 14 12 12
18 18 18 17 17 17 17 17 17 17 17 17 16 16 17 16 17 17 17 16 16 16 15 15 15 14 14 15 15 15 16 17 17 17 17 18 17 16 17 18 19 20 21 21 21 20 20 19 18 17 15 12 11 10 9 7 6 6 5 5 6 6 7 8 8 10 11 11 10 10 11 11 10 12 16 18 17 17 15 15 16 15 15 15 14 14 13 12
18 18 18 17 17 17 17 17 17 17 17 16 16 17 17 17 17 17 17 16 16 16 15 14 14 13 14 15 14 14 16 16 17 18 17 18 18 17 18 19 20 21 21 21 21 21 20 19 18 17 15 13 12 10 9 8 7 7 6 5 6 6 8 9 9 10 11 12 10 10 12 11 10 14 17 16 16 16 15 16 16 16 16 15 14 14 13 13
18 18 18 17 17 17 17 17 17 17 16 16 17 17 17 17 17 17 16 16 15 15 14 13 13 12 13 14 13 14 14 14 15 16 16 17 18 18 19 19 20 21 22 21 21 21 21 19 18 19 17 14 13 11 9 8 8 8 7 7 6 7 9 10 10 10 11 12 11 10 12 12 11 15 19 17 15 16 15 16 17 16 16 15 14 14 14 14
18 18 18 17 17 17 17 17 16 16 16 17 17 17 17 17 17 16 15 14 14 14 13 13 13 13 13 12 13 13 12 12 13 13 14 16 18 18 18 18 19 21 22 22 22 22 21 19 19 19 18 16 15 13 11 10 10 9 8 7 7 8 10 11 11 11 11 12 12 11 12 12 12 17 20 17 15 16 15 16 18 17 16 15 15 15 14 15
18 18 17 17 17 17 17 16 16 16 16 17 18 17 17 16 16 16 14 13 13 13 13 13 12 12 12 12 12 12 11 11 11 11 13 14 16 17 17 17 19 21 22 22 22 22 21 19 19 19 18 18 16 14 13 12 11 10 9 8 7 8 10 11 11 12 12 12 13 13 12 12 12 17 20 17 15 16 15 17 18 17 15 16 16 15 14 15
18 18 17 17 17 17 16 16 16 16 17 17 17 17 16 15 15 14 13 13 13 13 13 13 11 11 12 13 12 11 10 9 9 9 11 12 14 15 16 17 19 21 22 21 21 21 20 18 18 20 19 20 18 16 15 13 12 12 11 9 8 9 9 10 10 12 13 13 14 14 13 12 13 18 19 15 14 16 16 17 18 17 15 16 17 15 14 15
18 18 17 17 17 16 16 16 16 16 16 16 16 15 14 13 13 14 14 14 13 13 14 13 11 12 13 12 11 10 9 8 8 9 10 11 12 13 15 17 18 20 21 21 20 20 20 19 19 21 21 21 20 18 16 14 12 11 10 9 9 9 8 8 10 12 13 13 15 14 13 14 15 16 15 13 14 16 18 18 17 17 16 16 17 16 15 15
18 17 17 17 16 15 15 15 15 15 15 15 15 15 13 13 13 14 14 14 14 13 14 13 11 11 12 10 8 8 7 7 7 8 9 10 11 12 14 15 17 19 20 21 20 19 20 20 20 21 22 22 21 18 17 15 13 12 10 9 9 8 8 7 9 13 12 12 15 15 14 15 15 16 14 12 14 17 18 19 18 18 16 16 18 17 15 15
18 17 17 17 16 15 15 15 14 14 14 14 14 14 14 14 14 14 13 13 15 14 12 12 9 8 9 9 9 8 6 5 7 7 8 10 11 12 13 14 15 17 18 20 20 19 19 20 21 21 21 23 22 18 17 16 14 13 11 10 9 8 8 7 9 12 12 12 14 16 15 15 17 18 15 12 14 16 18 19 19 19 17 16 18 17 16 15
17 17 17 16 15 15 14 14 14 14 13 13 14 14 14 15 14 14 13 12 14 13 10 8 6 6 6 6 7 7 5 5 7 7 7 9 10 12 12 12 14 16 18 19 20 19 19 19 20 21 20 23 23 20 18 17 15 14 12 10 9 10 9 9 10 11 11 12 13 16 15 15 17 18 16 14 14 15 16 18 19 19 18 17 18 17 17 16
17 17 17 16 15 14 14 14 14 12 12 13 13 14 15 15 14 14 12 10 10 11 8 5 4 4 5 5 4 4 5 5 6 7 8 9 10 11 11 12 13 14 17 18 20 19 19 18 18 19 20 22 23 21 19 17 15 15 14 11 10 12 11 8 10 11 11 11 12 15 15 15 19 20 18 16 15 15 15 16 19 19 18 18 18 18 17 17
17 17 16 15 14 14 14 13 12 12 13 13 13 15 15 15 14 12 10 9 9 8 7 5 3 4 4 3 3 3 4 5 5 6 8 9 10 10 9 11 12 13 15 17 18 18 19 18 17 17 20 22 21 20 20 19 16 15 15 13 12 13 10 9 11 12 11 11 13 16 15 15 20 21 19 18 16 16 16 17 19 18 18 19 19 18 18 18
17 16 16 15 14 14 13 11 11 12 13 12 13 15 16 15 14 11 9 8 8 7 6 5 3 4 5 3 3 2 2 4 5 6 8 9 10 10 9 9 10 12 14 15 16 17 17 18 17 19 21 21 20 19 20 19 17 15 14 13 12 11 10 11 13 13 12 11 12 15 15 15 19 22 20 19 18 17 16 17 19 18 18 20 20 19 19 18
17 16 15 14 13 13 11 10 11 12 11 11 13 15 15 15 14 11 8 7 6 5 5 5 4 6 4 2 3 2 1 3 3 5 8 9 9 10 11 10 10 11 12 12 15 17 17 17 17 19 21 20 20 19 20 20 17 15 14 13 13 11 11 12 12 12 12 11 10 12 14 15 19 21 21 20 19 18 18 18 19 18 18 20 20 20 20 19
16 16 15 13 12 11 10 10 10 10 10 12 14 15 14 15 13 10 7 5 5 5 5 4 5 6 3 0 2 3 2 2 3 5 8 9 8 10 11 11 11 11 12 12 15 16 16 17 18 19 20 20 19 18 19 19 17 15 14 13 12 11 11 11 11 11 11 11 10 11 13 15 18 20 20 21 20 20 20 20 20 19 19 20 20 21 21 20
16 15 14 12 11 10 9 9 9 9 10 13 15 14 14 14 11 8 6 4 4 5 5 4 5 5 3 2 1 2 2 1 3 5 6 8 9 11 11 12 11 11 12 14 15 16 16 17 17 17 18 19 17 17 18 18 16 14 13 12 11 9 9 9 10 10 10 10 11 12 13 13 15 19 22 22 22 22 21 20 20 20 19 20 20 21 22 20
16 15 13 11 10 9 8 9 8 9 12 14 14 14 13 11 9 8 6 5 5 6 5 4 4 4 3 3 2 1 1 1 3 4 5 7 8 11 11 12 12 11 12 13 14 16 16 17 17 17 18 18 17 17 17 17 17 16 14 13 11 9 8 9 9 9 9 9 10 12 14 12 11 16 22 24 23 23 22 20 20 20 20 20 20 21 22 21
16 14 12 10 8 8 8 8 8 9 11 13 13 13 12 9 8 7 5 5 6 6 5 4 4 4 2 2 3 2 2 1 2 2 4 5 6 9 10 9 10 10 10 10 12 14 15 15 16 16 17 18 18 17 16 17 18 17 15 15 12 9 8 7 8 8 8 9 9 11 14 14 11 12 17 22 23 23 23 22 21 21 22 21 20 21 22 22
15 14 11 9 8 8 7 7 8 10 12 13 13 11 9 8 7 6 6 6 6 5 6 5 4 3 1 1 3 2 1 2 3 3 3 3 5 9 9 10 10 9 9 10 10 11 13 15 15 14 15 19 20 18 17 17 17 17 17 16 12 9 8 7 8 8 8 9 8 9 12 13 12 11 13 18 22 26 26 24 23 23 23 23 21 21 22 22
15 13 10 8 7 7 7 7 9 10 12 13 12 9 8 7 6 6 7 6 5 5 5 5 4 3 2 2 4 3 0 2 2 3 3 4 6 8 9 10 11 10 9 9 8 8 11 13 14 14 16 19 20 20 19 19 18 18 18 16 12 10 8 8 9 8 9 9 7 8 10 10 10 10 12 15 19 26 29 27 26 25 24 23 22 21 23 23
15 12 9 7 7 7 7 7 8 10 11 12 10 8 7 6 6 7 7 6 5 5 6 7 5 2 1 1 2 2 0 2 2 2 3 3 5 6 8 9 10 11 10 8 8 9 11 12 13 16 18 19 19 20 20 19 18 17 16 15 13 11 10 9 9 9 9 9 7 7 9 9 8 8 10 12 15 22 28 28 27 26 25 23 21 21 23 24
14 10 8 7 7 7 7 6 7 9 10 10 8 7 6 5 6 7 6 6 6 5 6 8 4 1 1 3 3 2 1 1 1 1 2 5 6 6 7 7 9 10 9 8 9 9 10 11 13 14 16 18 19 18 18 18 17 16 15 14 13 12 10 9 9 9 9 8 8 8 8 8 9 7 8 10 11 18 26 28 26 26 27 27 24 22 22 24
12 9 8 7 6 6 5 5 6 7 8 8 7 7 5 4 5 6 5 6 6 5 6 7 5 3 1 3 4 2 2 1 1 1 2 5 6 6 7 7 8 10 10 10 9 9 9 10 12 12 12 16 20 19 18 18 16 15 15 15 13 12 11 9 8 8 8 7 7 8 8 7 8 7 7 9 10 14 22 27 27 26 27 28 27 23 22 23
10 9 8 7 6 5 4 4 5 5 6 7 6 5 5 5 5 5 5 7 7 6 5 5 4 3 1 2 3 1 1 1 1 1 4 5 6 7 8 7 8 9 10 10 9 10 9 8 11 13 13 15 19 19 19 18 16 14 15 15 13 11 10 9 9 8 8 7 7 8 8 7 7 7 7 10 11 13 18 25 28 27 26 27 28 25 23 23
10 9 8 7 5 4 3 4 4 4 5 6 5 5 5 6 5 5 6 7 7 6 4 4 4 2 1 1 1 0 1 1 1 1 4 6 6 7 7 7 8 8 8 9 10 10 9 7 10 13 15 16 16 18 19 17 15 15 14 15 14 11 10 10 9 9 9 7 7 7 7 8 8 8 8 10 12 13 17 22 27 28 28 28 28 27 24 23
9 9 7 6 4 3 3 3 4 4 5 6 5 5 6 7 7 8 8 7 5 4 3 3 3 2 1 0 0 2 2 1 1 0 3 7 7 6 7 7 7 7 6 7 10 10 9 8 9 10 13 15 15 17 19 17 16 15 13 13 13 11 11 12 10 9 9 8 7 6 5 6 8 9 9 10 10 10 15 22 26 28 28 28 28 27 25 24
8 8 7 4 4 4 4 3 4 5 5 5 5 5 7 7 7 8 9 7 3 3 3 2 2 2 1 1 1 2 2 1 1 1 2 7 8 6 7 7 6 6 5 7 9 8 8 9 8 8 11 16 16 16 18 19 18 16 14 13 13 11 10 11 10 10 9 8 7 6 5 6 7 8 9 10 8 7 11 20 25 28 29 27 28 28 26 24
7 7 6 5 5 4 2 3 4 5 6 6 6 6 7 7 7 7 9 7 3 2 3 2 1 1 1 1 2 3 2 1 0 1 2 6 8 7 7 6 6 5 5 8 10 7 7 8 7 7 10 14 15 14 16 19 18 17 16 14 13 12 11 10 10 10 9 8 8 7 6 6 6 7 8 9 8 6 9 17 24 27 27 26 26 27 26 24
6 5 6 6 5 2 1 4 5 4 6 7 7 7 8 8 6 5 6 6 4 3 2 2 1 1 1 1 2 2 1 0 0 1 2 5 8 9 7 4 5 6 6 9 12 9 9 9 7 8 10 13 15 13 15 18 16 15 15 15 14 13 12 11 10 10 10 8 8 6 5 6 6 6 8 8 8 8 10 16 21 23 24 24 24 25 25 25
6 7 7 6 5 3 4 6 7 6 6 7 8 8 8 7 5 4 5 5 4 3 3 3 2 1 2 2 2 1 1 1 1 2 3 4 6 7 7 4 3 5 6 8 11 9 9 9 7 8 9 11 13 12 13 14 13 13 14 14 14 13 13 12 11 11 10 9 8 5 4 6 6 6 8 9 10 11 12 15 18 21 22 23 24 25 26 25
8 8 7 6 5 5 5 6 7 7 7 8 8 8 7 6 4 5 5 5 4 4 4 3 2 2 2 2 2 2 1 1 1 2 2 2 3 4 6 6 3 3 5 8 10 10 9 9 7 7 8 8 9 10 11 11 11 13 15 15 15 15 14 12 10 10 10 11 9 7 5 6 6 5 7 9 10 11 12 14 16 17 19 21 23 26 28 26
8 7 6 7 7 6 6 6 5 6 7 8 8 6 6 6 5 4 4 5 5 4 3 3 3 2 2 2 2 2 1 1 2 2 2 1 2 2 3 4 4 4 6 7 10 12 10 8 8 8 9 9 9 10 10 10 10 12 13 13 14 16 16 14 12 11 11 12 10 8 6 6 6 5 6 8 9 10 10 12 13 14 15 19 21 25 29 28
7 7 8 8 7 6 6 6 6 6 8 8 7 7 6 6 5 4 3 4 4 2 2 3 3 3 2 1 2 2 1 2 2 2 2 0 1 2 1 2 3 4 4 5 9 14 11 8 7 9 10 10 11 11 9 9 9 9 10 10 9 11 14 15 14 14 13 13 12 10 8 7 7 6 6 7 8 8 9 10 12 11 12 15 18 24 30 30
8 8 8 8 8 6 6 7 7 8 9 9 7 6 5 4 4 3 4 4 2 2 3 2 2 3 3 3 3 3 3 2 2 2 3 2 1 2 1 1 2 2 2 4 8 13 12 8 7 9 9 8 8 9 7 7 8 8 9 9 7 7 10 12 15 16 14 14 13 11 7 7 8 7 6 6 6 7 7 8 10 11 11 12 14 19 28 30
9 9 8 7 7 6 6 7 8 9 10 9 6 5 4 5 4 3 3 3 0 1 2 1 2 1 2 2 3 4 3 3 3 3 4 3 2 2 2 2 3 2 3 5 7 11 13 9 6 8 8 4 2 4 5 8 10 8 8 9 7 6 8 10 12 14 13 12 12 11 8 7 7 6 6 5 5 5 5 5 7 8 9 10 12 17 24 27
9 10 10 8 7 7 7 8 9 9 9 7 5 4 3 4 5 3 3 2 1 2 1 1 2 1 1 1 2 3 3 3 4 4 5 4 3 2 1 3 3 2 3 5 7 10 12 9 6 8 9 6 3 5 7 9 9 8 6 7 8 7 7 8 10 12 12 11 11 11 10 8 7 6 5 5 5 5 5 4 5 5 6 7 10 15 19 23
9 9 10 9 9 9 8 8 8 8 7 6 5 5 5 3 4 4 3 3 2 2 1 1 2 2 0 1 0 2 4 5 5 5 5 4 4 3 3 4 4 3 3 5 7 9 11 9 7 8 9 7 4 6 8 9 10 9 6 5 7 7 6 7 9 10 12 12 11 11 10 8 7 6 5 5 5 5 4 4 5 5 6 7 8 11 14 18
10 10 10 10 10 9 8 8 8 6 6 5 5 5 5 4 4 4 4 4 3 3 3 2 2 2 2 1 1 1 3 4 5 5 5 5 5 6 5 5 5 4 4 5 6 8 10 9 9 9 8 7 6 7 9 10 10 8 5 4 5 7 7 7 8 9 11 12 12 10 9 9 9 7 6 5 4 5 5 5 5 5 7 9 10 11 12 14
10 10 10 10 10 9 8 8 7 5 4 5 6 6 5 6 5 3 4 5 4 3 4 4 2 2 2 1 2 2 2 3 5 6 5 5 6 5 6 7 6 5 6 6 6 8 9 9 9 10 9 7 8 9 10 9 8 5 5 6 6 7 8 8 7 7 8 11 11 11 10 10 9 8 7 5 5 5 5 5 6 6 6 8 10 10 10 12
Wind_Direction
351 348 344 341 338 335 333 332 330 329 327 324 321 317 312 307 302 298 295 293 293 292 291 289 286 285 284 284 283 282 281 276 272 265 257 253 245 238 232 229 232 229 229 231 228 224 220 220 221 220 225 235 243 244 235 229 236 275 316 328 328 319 279 212 191 181 175 170 170 167 160 162 166 164 166 160 147 141 142 146 147 142 142 144 144 145 144 143
352 348 345 342 339 336 333 331 329 327 325 324 322 319 315 311 307 302 298 295 293 292 291 289 287 287 286 285 284 283 282 276 272 264 257 252 243 236 231 230 234 228 225 226 225 220 216 216 215 216 222 233 241 235 224 226 240 281 309 323 327 328 287 195 178 171 172 169 168 168 161 161 164 159 165 168 154 144 144 147 144 140 144 145 145 148 146 144
351 348 345 342 339 336 333 331 329 327 325 323 321 318 316 313 310 307 303 299 296 293 291 289 288 287 287 285 284 284 282 277 270 262 259 252 240 235 230 230 231 225 223 225 223 218 216 214 213 214 218 231 238 223 221 232 243 284 318 328 326 348 111 168 167 167 174 169 164 166 163 165 169 162 166 170 156 152 154 151 147 147 151 149 147 150 149 147
351 348 345 342 339 336 332 330 329 326 325 323 321 319 316 314 311 308 305 302 299 296 293 291 289 288 287 285 284 284 281 275 266 258 261 257 240 233 230 230 228 223 224 226 224 221 220 221 222 220 220 230 233 218 221 232 239 270 316 323 323 21 128 159 164 168 172 169 165 169 172 173 171 167 172 171 159 161 166 157 153 153 155 153 148 150 152 149
350 347 344 341 339 336 332 329 328 326 325 323 321 319 316 314 311 309 306 303 301 298 296 294 292 290 286 284 283 282 279 270 262 258 261 259 243 232 229 229 226 223 224 224 223 222 222 222 226 229 228 230 225 219 224 225 229 254 282 297 304 278 174 172 171 170 168 166 166 169 174 171 167 170 177 174 167 168 166 157 153 152 155 155 150 149 151 150
348 346 343 340 338 335 332 329 327 325 324 323 321 319 317 315 312 311 308 305 303 300 299 297 294 291 288 284 280 278 273 265 262 259 257 254 244 234 229 226 225 224 224 224 221 220 221 221 224 229 230 226 216 219 225 219 227 249 273 280 256 235 200 182 178 174 167 166 167 169 172 169 168 174 176 176 173 169 159 152 150 150 152 154 152 150 150 150
344 343 342 339 337 334 331 328 326 324 323 322 321 319 317 315 313 311 309 307 304 302 300 299 297 293 290 285 278 275 271 265 262 257 253 251 243 234 228 225 224 223 222 222 219 217 218 218 224 227 224 221 215 219 218 214 227 242 267 267 240 232 203 185 180 176 170 169 171 170 172 172 172 173 177 176 166 162 158 151 149 149 151 154 155 153 152 152
341 340 339 338 335 333 330 327 325 323 321 321 320 319 317 315 313 311 308 306 304 303 301 299 298 295 292 285 278 277 271 263 258 254 251 248 242 235 230 228 225 222 222 220 217 215 216 218 223 222 217 218 217 218 212 212 233 239 244 242 230 222 192 180 177 174 172 173 173 169 170 177 176 172 179 175 161 160 160 154 151 150 153 156 156 156 157 158
339 337 337 336 334 332 329 326 324 322 320 320 319 318 317 315 313 310 308 305 303 302 300 299 297 295 293 285 280 278 269 261 257 254 249 246 243 237 232 230 226 222 222 220 217 214 215 217 217 216 218 220 217 213 207 215 237 233 225 215 204 210 188 176 174 172 174 176 171 167 171 179 179 174 174 168 159 159 160 158 157 155 156 158 157 160 163 163
337 336 335 334 333 331 328 326 323 321 319 319 319 318 316 314 312 310 307 305 304 302 300 299 297 295 292 286 281 274 267 264 259 252 248 246 243 238 233 231 225 221 220 219 217 214 213 213 212 216 224 226 218 209 208 221 233 218 206 201 194 201 190 178 174 172 177 175 166 167 178 180 177 173 170 163 158 159 160 160 162 161 160 160 160 164 167 166
336 334 333 332 331 329 327 326 324 321 319 318 318 316 315 314 312 310 308 307 305 303 301 298 297 295 291 287 279 269 265 265 261 254 248 245 243 238 234 230 224 220 218 217 216 213 212 213 213 218 223 224 216 209 214 220 214 194 184 189 190 183 180 177 171 171 177 174 166 170 176 174 174 174 169 163 161 161 161 162 166 166 164 164 165 166 169 169
335 333 332 331 329 328 327 326 324 322 320 319 317 316 314 313 312 310 309 308 306 305 302 299 297 295 292 287 274 266 267 266 264 260 248 243 245 241 234 229 223 219 217 216 215 212 212 213 214 216 220 222 216 215 216 204 192 189 191 200 201 182 180 183 177 173 174 173 174 175 172 170 175 178 171 165 163 163 164 166 168 169 168 168 169 168 170 169
335 332 331 329 328 328 327 326 325 323 321 319 317 316 314 313 312 311 310 309 307 305 303 300 298 295 293 286 275 269 270 267 264 260 249 245 247 242 234 227 222 219 217 215 214 212 213 214 215 219 224 225 216 211 205 199 197 200 216 224 213 193 187 189 184 179 175 175 180 180 175 177 182 182 174 168 165 165 167 169 169 171 171 172 172 169 168 168
334 332 330 329 328 328 327 326 325 324 321 319 317 316 315 314 312 311 311 309 306 304 303 301 299 297 293 286 279 275 273 268 263 257 248 245 243 238 233 227 222 219 217 216 214 214 216 217 219 222 226 220 205 200 200 208 215 208 216 229 216 198 191 195 192 184 180 180 185 181 177 180 181 176 174 171 168 168 171 172 172 174 173 173 172 168 166 167
333 331 330 329 328 328 328 327 325 324 321 319 318 317 316 315 312 312 311 308 306 305 304 302 298 298 298 289 283 281 276 269 262 255 247 241 236 234 230 225 221 218 216 215 215 216 217 219 221 219 217 206 194 197 205 210 214 211 207 214 217 201 192 200 200 190 185 184 184 181 177 178 178 173 174 178 174 172 176 175 174 174 172 173 172 167 165 167
332 331 330 329 328 328 327 326 326 324 321 320 318 317 316 315 313 312 310 307 306 305 305 304 299 298 298 291 289 288 277 267 263 255 245 236 231 230 226 221 218 216 215 215 215 216 218 220 220 215 209 202 197 202 206 207 211 214 208 207 215 204 192 196 200 196 191 189 186 183 180 180 182 177 178 185 182 177 179 177 174 173 173 172 171 168 165 164
332 330 330 330 328 328 327 327 326 324 322 321 319 317 316 316 315 314 310 307 307 305 304 303 299 297 293 290 292 290 276 267 265 254 241 231 226 224 220 217 217 214 213 215 216 217 218 218 215 212 209 204 203 204 203 205 210 213 211 209 210 205 196 193 199 200 195 194 192 188 184 182 183 182 182 188 186 180 178 175 174 176 175 172 172 170 166 166
332 330 330 330 329 327 328 327 326 324 324 322 320 319 318 318 319 317 312 310 311 309 306 302 299 296 290 291 292 286 276 268 261 248 237 228 223 220 216 215 213 210 210 213 215 215 215 215 212 210 211 207 203 203 204 206 207 206 207 207 203 204 203 198 200 200 195 194 193 192 188 183 184 184 186 190 188 182 178 175 176 179 176 173 174 173 169 169
332 331 331 331 329 328 328 327 326 326 326 325 324 323 322 324 323 321 318 314 313 312 308 301 294 290 288 289 287 280 272 261 252 243 233 224 219 217 215 214 210 206 205 208 211 212 211 212 211 210 212 209 204 203 206 207 203 199 201 204 200 201 205 204 201 199 196 193 193 196 191 186 188 186 186 193 192 184 179 177 178 181 180 176 176 176 171 171
332 331 331 331 329 328 328 327 327 328 330 331 332 332 331 330 329 328 323 314 310 310 309 302 289 285 287 286 282 275 267 260 250 238 228 220 215 214 213 211 207 205 204 205 209 211 208 209 212 211 210 208 205 204 206 206 201 196 200 203 201 201 206 206 201 201 202 196 195 196 190 188 192 188 188 195 194 187 181 179 180 182 182 179 179 178 175 175
332 332 332 330 329 328 328 328 329 331 333 334 337 338 334 333 334 333 329 320 315 311 306 303 293 286 281 274 274 273 266 262 248 234 225 216 210 211 212 208 204 205 206 205 208 210 207 208 212 211 209 207 206 205 205 204 200 197 202 202 202 207 209 209 204 204 207 202 197 194 189 192 193 192 195 197 193 189 184 182 182 183 183 181 181 180 179 180
332 332 331 330 329 328 328 328 330 332 335 336 340 340 335 336 336 334 336 328 319 314 308 305 303 293 277 265 269 269 263 255 242 234 221 210 207 208 208 204 202 206 207 205 206 209 209 211 213 211 208 207 206 205 204 204 201 200 205 203 207 210 204 207 209 208 208 206 200 194 193 195 194 195 199 198 195 191 187 185 183 183 184 183 182 182 182 182
333 332 331 330 329 329 329 330 331 333 335 339 341 340 338 339 335 332 335 330 321 322 322 316 311 299 282 270 265 256 249 236 228 228 213 202 204 204 203 202 203 207 207 206 205 206 210 212 212 209 205 204 206 207 205 205 205 205 206 206 210 208 206 209 209 207 205 205 201 194 196 198 195 198 200 199 199 190 187 189 187 185 185 185 185 184 185 183
333 332 331 330 329 329 329 330 332 334 336 340 341 341 343 342 337 334 335 332 328 330 331 327 317 306 291 278 266 243 233 224 218 220 212 202 199 197 198 200 202 207 208 206 204 206 209 208 205 206 203 200 203 205 202 204 208 209 209 210 210 208 211 207 197 198 197 204 203 192 195 200 198 200 199 200 201 191 187 189 190 190 188 186 187 187 186 184
332 332 331 331 330 328 328 330 334 336 336 338 342 344 346 345 342 340 340 340 337 334 337 335 324 321 309 280 266 235 219 225 222 215 210 203 193 190 196 197 198 207 209 205 205 207 210 206 200 203 204 200 202 204 202 203 207 210 212 211 205 203 203 187 184 192 194 205 207 196 197 201 198 200 199 199 200 195 192 191 191 193 191 187 187 188 187 185
332 332 332 331 329 328 329 333 337 338 337 339 343 345 345 345 345 344 345 348 344 341 347 351 342 331 322 267 244 218 200 236 231 211 206 204 198 194 200 201 200 204 203 202 206 206 205 201 198 202 204 201 203 205 203 202 202 209 212 205 199 196 191 184 187 195 198 202 206 202 201 199 199 202 201 200 201 200 199 195 192 194 193 190 189 189 188 186
331 331 332 330 330 332 333 336 339 342 344 345 345 346 345 345 345 344 349 353 352 352 354 358 349 337 327 242 222 178 173 261 235 208 202 201 206 205 204 204 203 204 200 202 208 205 201 199 198 203 204 202 204 205 204 203 204 211 207 194 192 193 191 192 194 201 202 197 198 205 205 201 204 205 201 200 203 204 203 199 195 195 194 193 191 191 189 188
330 331 332 329 330 332 333 337 342 345 347 346 345 345 345 345 345 351 1 4 360 359 358 360 357 353 358 317 213 195 232 260 217 217 211 205 210 207 204 203 202 208 207 205 208 204 199 200 199 201 203 202 202 201 199 199 205 210 200 189 192 193 193 196 198 204 204 197 199 206 204 205 210 207 201 201 205 206 205 203 199 196 196 195 194 193 190 190
329 330 330 328 328 330 333 338 342 344 345 345 344 343 344 347 352 1 8 8 356 350 353 358 0 5 20 44 95 203 246 230 206 221 218 221 223 209 206 206 205 216 212 202 206 206 201 203 199 196 199 201 200 198 194 193 199 200 186 180 186 187 192 198 201 205 204 205 208 206 202 204 212 210 205 205 208 206 205 204 201 199 197 196 195 194 192 192
329 328 327 326 327 330 333 334 332 336 341 342 342 341 345 352 1 5 5 360 343 340 354 357 353 10 33 40 22 281 273 214 222 230 222 232 226 208 208 211 209 216 212 204 208 208 206 207 202 196 198 198 195 192 188 185 185 182 177 175 178 185 193 198 207 206 204 214 218 211 207 207 212 212 210 210 209 204 203 204 203 200 199 197 197 195 192 193
327 326 325 323 325 327 332 334 335 339 341 340 340 343 349 357 4 9 2 349 342 338 350 347 342 7 36 32 357 309 290 285 268 253 236 236 215 201 204 208 207 209 208 206 209 208 205 204 200 197 195 190 188 186 180 179 178 177 181 180 175 187 197 199 211 208 204 215 218 215 212 211 216 215 212 213 210 206 205 205 203 201 200 198 197 196 193 193
327 325 321 317 317 320 323 329 338 343 340 339 343 348 357 3 4 4 348 348 356 343 337 336 333 346 350 9 356 321 270 298 286 240 219 206 195 197 193 192 194 195 197 197 199 202 201 197 196 197 190 182 182 182 179 182 185 183 185 183 180 194 204 207 214 211 209 212 215 216 211 213 222 220 211 212 210 208 208 207 204 201 201 200 198 197 195 194
327 325 321 311 310 315 316 320 330 337 339 342 348 354 7 10 356 345 340 348 357 342 340 338 315 317 357 28 5 357 294 314 302 217 197 177 183 195 191 187 184 181 188 192 191 199 200 199 200 196 188 182 181 182 183 186 188 187 186 188 190 194 200 211 215 213 213 213 217 215 206 212 228 224 213 211 210 209 207 207 206 203 202 201 200 200 197 195
328 327 323 311 306 308 310 319 328 335 341 347 353 360 9 6 345 342 345 347 344 341 353 348 320 298 7 3 351 17 67 305 308 179 174 159 169 187 189 189 187 185 191 195 198 199 194 198 202 194 189 189 187 188 190 188 189 191 191 193 198 197 197 206 209 206 206 208 212 211 208 212 220 221 216 211 209 209 207 206 205 203 204 204 203 202 200 197
330 329 324 315 310 304 302 315 326 332 342 351 359 5 4 350 343 349 349 346 344 341 350 357 3 35 309 302 324 17 73 300 271 165 166 165 170 182 185 190 190 188 190 195 198 194 189 199 200 192 192 193 190 191 190 185 189 196 194 197 206 206 197 195 201 199 195 201 209 210 217 219 215 218 216 209 206 204 202 201 201 201 203 205 205 204 202 199
332 331 323 315 311 307 306 317 325 330 343 358 5 4 359 344 344 349 348 351 349 342 347 358 15 28 327 306 330 8 67 54 91 156 189 178 178 183 185 188 185 185 188 191 194 189 189 199 195 190 197 195 190 189 186 184 190 197 198 203 209 206 196 189 199 202 194 201 210 211 222 227 222 224 214 203 203 199 197 198 200 200 200 202 204 204 203 200
335 331 323 311 305 309 315 319 327 333 346 5 9 358 353 346 344 343 341 341 336 338 355 358 358 9 359 326 344 32 80 20 27 240 208 184 183 187 186 187 187 186 182 183 191 188 185 199 199 194 197 196 191 189 190 192 189 190 202 207 201 201 202 193 197 204 203 206 209 214 224 223 219 222 211 202 203 203 200 200 201 201 200 200 201 202 202 200
336 333 323 309 300 305 313 313 326 337 350 1 355 345 350 344 338 333 326 325 327 334 354 355 348 343 316 309 317 357 324 310 334 271 203 186 186 186 182 186 190 185 176 179 191 189 182 198 205 195 192 197 196 191 197 204 195 189 200 201 193 198 203 195 195 202 205 209 212 220 228 225 221 219 212 206 207 210 208 203 201 201 200 200 200 200 201 201
339 338 329 317 309 311 309 308 325 341 351 354 343 341 347 338 329 326 323 322 331 345 344 337 354 357 333 5 266 308 322 254 179 58 176 183 185 180 179 185 189 192 190 182 186 190 188 192 201 199 192 193 191 188 196 204 199 196 197 196 199 204 201 197 201 201 199 205 215 221 230 234 230 220 211 208 209 212 211 205 200 198 198 199 200 201 201 201
342 342 332 325 332 325 313 318 337 347 347 337 327 327 330 328 327 334 343 346 338 344 341 319 352 20 8 27 359 332 348 68 158 114 165 184 184 179 179 179 185 206 210 182 176 186 190 188 197 202 189 182 183 189 196 197 197 198 197 199 204 206 201 200 205 205 199 201 208 213 228 240 235 219 210 207 204 205 204 199 196 195 197 200 201 202 202 202
345 346 328 322 332 326 321 333 330 333 334 327 324 322 317 315 317 335 358 6 349 327 348 318 272 2 356 326 337 334 341 7 153 127 157 181 180 178 180 180 190 208 203 183 184 188 186 183 185 188 184 183 189 197 195 193 196 197 198 203 201 198 197 197 207 213 205 200 201 203 223 240 234 215 208 203 195 186 184 187 190 192 196 200 201 202 203 203
336 335 319 321 326 309 325 334 320 318 329 326 320 316 309 304 298 309 343 355 344 325 345 341 286 280 294 273 307 335 1 11 230 151 153 173 177 185 195 194 194 196 183 185 195 198 188 181 174 180 187 190 199 203 192 192 199 200 202 206 200 200 201 195 205 212 202 200 205 204 222 237 231 211 201 198 192 180 172 176 184 191 197 202 204 203 203 205
320 315 313 319 319 297 313 325 322 320 318 312 310 309 308 306 293 293 319 336 340 327 318 329 327 281 268 262 274 321 49 105 207 174 165 170 176 194 210 208 189 191 184 187 196 195 186 180 176 188 195 192 198 198 186 188 197 202 209 211 204 208 209 202 207 206 196 201 206 206 223 229 226 212 196 193 191 183 177 177 184 192 201 206 207 206 204 205
315 310 313 319 317 305 301 310 320 321 312 308 311 313 316 320 303 293 305 304 300 307 302 300 301 266 260 249 240 261 231 173 221 176 157 166 179 195 204 199 190 185 185 189 189 182 176 175 172 178 185 184 189 192 193 200 202 203 213 217 213 212 209 208 213 207 202 207 200 193 210 221 224 211 190 187 185 183 184 186 188 193 200 207 209 208 205 205
312 305 304 308 310 307 295 295 311 321 319 317 315 316 322 323 311 298 304 296 285 289 288 279 283 283 271 231 228 269 245 201 218 199 159 157 187 183 177 192 202 194 191 194 186 179 175 170 166 168 173 178 185 190 201 216 217 212 216 219 221 219 213 211 212 206 208 209 200 194 201 210 216 202 185 185 183 181 185 189 192 195 200 206 209 208 205 205
303 295 296 300 305 312 304 302 312 317 317 315 311 312 315 313 306 297 308 309 295 300 298 275 279 291 284 244 239 285 286 215 207 205 201 170 194 198 181 178 194 197 205 199 183 180 180 173 171 174 173 177 189 199 213 222 217 214 212 206 215 220 212 207 208 209 208 204 205 211 205 194 197 191 182 183 181 181 185 187 190 195 200 203 206 206 203 202
288 288 296 296 294 302 306 312 322 319 308 301 299 303 306 314 313 297 308 313 287 326 329 290 279 274 252 243 246 264 273 234 219 224 218 218 214 221 241 180 178 200 212 188 180 182 183 182 184 183 177 179 198 212 221 204 182 180 187 184 188 206 201 198 205 208 204 199 206 217 205 186 192 192 185 185 182 182 184 185 189 193 196 197 197 197 198 199
282 285 294 292 284 287 293 299 309 313 306 297 291 291 295 318 323 289 302 326 297 335 335 312 328 310 211 225 243 249 262 242 235 237 221 227 248 250 263 215 192 192 179 178 183 183 182 187 195 188 178 172 178 178 169 164 159 157 167 173 177 192 194 193 197 197 193 193 199 200 184 177 190 194 190 193 189 179 179 184 189 192 195 193 186 184 190 196
284 283 286 288 284 280 283 290 297 303 304 300 299 288 266 301 325 291 263 303 321 319 322 270 325 357 143 213 235 225 235 226 230 238 225 230 245 237 238 220 213 213 180 185 193 186 182 189 199 187 176 164 128 134 152 163 162 152 153 170 176 180 186 188 187 185 182 182 186 185 177 177 193 198 189 186 181 173 172 175 179 184 193 196 190 186 191 198
284 279 280 284 285 282 282 290 296 295 297 305 310 290 256 271 323 307 257 260 275 273 267 303 304 295 272 334 313 235 229 209 211 230 226 229 238 224 212 214 225 243 221 200 203 196 189 195 201 185 176 177 165 147 149 152 150 146 149 170 175 174 178 181 184 190 189 183 184 186 183 190 207 209 190 180 178 177 179 177 176 184 194 200 202 199 198 202
282 277 274 271 275 279 279 285 293 288 287 300 306 293 267 262 290 288 266 267 253 228 246 279 286 282 292 337 4 277 242 216 222 238 238 239 235 224 221 223 226 239 234 218 214 209 202 206 206 190 181 191 192 175 165 157 148 144 147 162 168 171 176 177 178 187 191 187 187 189 191 202 215 212 196 186 180 180 192 196 191 193 198 202 207 208 207 208
285 278 273 265 265 271 270 273 284 281 274 289 296 289 272 266 276 274 266 277 269 238 258 270 247 236 260 284 280 259 254 252 246 243 241 240 236 234 242 243 235 230 228 220 216 214 209 210 209 197 195 207 204 196 193 183 173 176 187 193 188 175 175 180 179 182 191 194 195 196 200 208 215 211 200 196 192 192 206 213 206 204 205 207 210 211 210 213